小惑星A/2019 K6

A/2019 K6

English version
Home page
Updated on August 6, 2019

---------------------------------------------------------------------

・ プロフィール

発見日 2019年5月31日
発見光度 21.1等
発見者 Pan-STARRS 2 telescope (Haleakala)

・ 写真集

・ 軌道要素

Epoch 2020 May 31.0 TT = JDT 2459000.5                                          
T 2020 May 20.25963 TT                                  MPCLINUX                
q   3.9281236            (2000.0)            P               Q                  
z  +0.0007453      Peri.  187.63293     -0.78653695     -0.35782932             
 +/-0.000035       Node    42.94242     -0.52035205     +0.82292041             
e   0.9970723      Incl.  132.37199     -0.33255582     -0.44131641             
From 159 observations 2019 May 7-June 30, mean residual 0".3.                   

・ 光度変化

        H = 13.0  G = 0.15

---------------------------------------------------------------------

軌道要素はM.P.E.C. 2019-N10に掲載されたものです。
光度グラフはComet for Windowsで作成したものです。

---------------------------------------------------------------------

Copyright(C) Seiichi Yoshida (comet@aerith.net). All rights reserved.